GFSSW_prec_cloud_159.txt.gz
Cloud_Cover
100 100 100 100 100 100 100 100 100 100 100 100 100 100 100 100 100 100 100 100 100 100 100 100 100 100 100 80 56 80 9 25 5 6 90 43 38 69 47 22 69 5 5 7 5
100 100 100 100 100 100 100 100 100 100 100 100 100 100 100 100 100 100 99 100 100 100 100 100 100 100 100 86 100 74 89 23 5 70 44 7 5 16 6 5 5 5 2 5 5
100 100 100 100 100 100 100 100 100 100 100 100 100 100 100 100 99 90 100 100 100 100 100 100 100 100 100 100 100 100 97 92 56 80 75 5 5 5 20 5 5 0 0 0 0
100 100 100 100 100 100 100 100 100 100 100 100 100 100 100 96 58 89 100 100 100 100 100 100 100 100 100 100 100 100 86 83 100 100 86 7 100 1 34 5 5 0 0 0 0
100 100 100 100 100 100 100 76 100 99 94 100 100 100 100 100 93 98 100 100 100 100 100 100 100 100 100 100 100 100 100 100 100 13 94 13 71 24 47 91 17 5 5 3 5
100 100 100 100 100 100 100 97 99 100 100 100 100 100 100 100 100 100 100 100 100 100 100 100 100 100 100 100 100 100 100 100 100 20 30 52 22 100 100 99 67 29 8 38 54
100 100 100 100 100 100 100 100 100 100 98 94 100 100 100 99 100 100 100 100 100 100 100 100 100 100 100 100 100 100 100 100 100 100 100 100 83 100 6 79 98 100 99 100 100
100 100 100 100 100 100 100 100 100 100 100 65 95 100 100 100 100 100 83 100 100 100 100 100 100 100 100 100 100 100 91 100 100 100 100 100 100 21 24 98 100 100 100 100 100
100 100 100 100 100 100 100 100 100 100 100 79 49 97 100 100 100 100 100 97 98 100 100 100 100 100 100 100 100 100 100 100 100 100 100 100 100 60 100 100 100 100 100 100 100
100 100 100 100 100 100 100 100 100 100 43 74 50 90 100 100 100 100 100 100 100 99 100 100 100 100 100 100 100 100 100 100 100 100 100 100 100 100 100 100 100 100 100 99 100
100 100 100 100 100 100 100 100 100 97 51 13 19 100 100 100 100 100 100 100 100 100 100 100 100 100 100 100 100 100 100 100 98 100 100 100 100 100 100 100 100 100 100 100 100
100 100 100 100 100 100 100 100 100 100 100 91 95 97 100 100 100 100 100 100 92 100 100 99 73 100 100 100 100 100 100 100 99 100 100 99 100 100 100 100 100 100 100 100 100
100 100 100 100 100 93 100 100 100 100 100 100 74 31 92 68 100 100 100 100 100 100 100 64 100 97 100 100 100 100 100 100 100 100 100 96 100 100 100 100 100 100 100 100 100
100 100 100 100 100 93 100 100 100 100 100 33 97 34 97 70 99 100 100 100 100 100 100 100 100 100 100 100 100 100 100 100 100 100 100 100 99 100 100 100 100 100 100 100 100
100 100 100 100 100 100 100 100 100 100 100 59 67 84 100 88 14 100 100 100 100 100 100 100 100 100 100 100 100 100 100 100 100 100 100 100 100 100 100 100 100 100 100 100 100
100 100 100 100 100 91 100 100 100 100 90 62 93 74 100 100 98 100 72 100 100 100 87 95 86 100 100 100 100 100 100 100 100 100 100 100 100 100 100 100 100 100 100 100 100
100 100 100 100 100 100 100 100 100 100 32 100 96 99 100 100 100 100 100 100 100 100 100 100 100 100 100 100 100 100 100 100 100 100 78 100 96 100 100 100 100 100 100 100 100
100 100 100 100 100 100 100 100 100 72 70 61 47 100 100 100 100 100 100 100 58 100 100 100 100 85 100 100 100 100 100 96 74 67 100 99 92 100 100 100 100 100 100 100 100
100 100 100 100 100 100 100 100 99 20 5 32 56 100 100 100 100 100 100 100 100 100 100 100 100 100 100 100 100 100 100 100 83 12 30 78 99 100 100 19 75 82 100 100 100
100 100 100 100 100 100 100 100 100 5 5 5 20 54 100 100 100 100 100 98 100 100 100 100 100 100 100 100 100 88 100 100 100 100 100 100 100 100 100 100 100 98 85 43 33
100 100 100 100 100 100 100 100 97 17 5 14 6 54 100 100 100 100 100 100 100 100 100 100 100 100 100 100 100 100 100 100 100 100 100 86 100 100 100 99 94 100 97 87 100
100 100 100 100 100 100 100 100 100 84 58 21 39 89 100 100 100 100 100 100 100 100 100 100 100 100 100 100 100 100 100 100 100 100 100 72 73 79 100 98 98 46 91 78 100
100 100 100 100 100 100 100 100 100 98 78 13 91 56 99 100 100 100 100 100 100 100 100 100 100 100 100 100 98 95 100 100 100 100 100 100 100 100 100 100 88 53 7 5 5
100 100 100 100 100 100 100 100 84 100 88 31 100 100 100 100 100 100 100 100 100 100 100 100 100 100 100 100 100 100 100 100 100 100 100 100 100 100 100 100 100 51 6 1 5
100 100 100 100 100 100 100 100 97 78 50 63 100 100 98 54 100 100 100 100 100 100 100 100 100 100 100 100 100 100 100 100 100 100 100 100 100 100 100 89 5 20 47 56 41
100 100 100 100 100 100 100 100 89 58 100 51 100 100 100 100 100 100 100 100 99 100 100 100 100 100 100 100 100 100 100 100 100 100 100 100 100 100 100 11 36 94 57 5 5
100 100 100 100 100 100 100 100 100 100 100 100 100 100 100 100 100 100 100 100 100 100 100 100 100 100 100 100 100 100 100 100 100 100 100 100 100 100 100 100 95 33 5 5 32

GFSSW_prec_cloud_162.txt.gz
Cloud_Cover
100 100 100 100 100 100 100 100 100 100 100 100 100 100 100 100 100 100 100 100 100 92 100 100 100 100 100 100 100 92 100 100 100 90 5 36 99 55 57 100 14 6 9 5 7
100 100 100 100 100 100 100 100 100 100 100 100 100 100 100 100 100 100 100 100 100 59 71 100 100 100 100 100 100 100 100 97 100 100 5 60 100 72 6 70 66 5 35 5 5
100 100 100 100 100 100 100 100 100 83 99 100 100 100 100 100 96 88 100 100 100 100 100 98 100 100 100 100 100 100 100 89 100 100 64 16 54 67 76 100 91 18 5 49 23
100 100 100 100 100 100 100 100 100 100 100 100 100 100 100 100 68 96 100 100 100 100 100 100 100 100 100 100 100 100 100 89 84 100 100 10 62 100 61 42 56 65 9 31 6
100 100 100 100 100 100 100 100 100 98 90 88 100 100 100 100 76 100 100 100 99 100 100 100 100 100 100 100 100 100 100 100 100 100 100 72 41 100 82 48 6 58 70 71 51
100 100 100 100 100 100 100 100 100 100 100 100 95 100 100 100 100 100 100 100 100 100 96 100 100 100 99 100 99 100 100 100 100 100 100 100 44 98 87 59 5 9 98 100 100
100 100 100 100 100 100 100 100 100 100 98 91 80 98 100 100 100 100 100 100 90 100 100 92 87 100 100 75 100 100 31 75 100 100 100 100 100 100 10 58 98 40 48 14 68
100 100 100 100 100 100 100 100 100 100 100 77 88 59 93 100 100 100 100 100 100 100 90 97 66 90 100 100 100 100 93 11 100 100 100 100 100 100 100 100 100 100 39 5 86
100 100 100 100 100 100 100 100 100 100 100 100 100 40 65 100 100 100 100 100 100 100 100 100 73 86 95 100 100 100 100 88 100 100 33 100 100 100 100 100 100 100 100 100 36
100 100 100 100 100 100 100 100 100 100 97 100 43 57 64 79 100 100 100 100 100 100 100 100 97 100 100 100 100 100 100 99 100 100 99 73 100 100 100 100 100 100 100 100 100
100 100 100 100 100 100 100 100 100 100 100 100 41 100 100 100 93 100 100 100 100 100 100 100 100 91 100 100 100 100 100 100 100 100 31 84 100 100 100 100 100 100 100 100 100
100 100 100 100 100 100 100 100 100 100 100 100 100 100 100 100 100 61 85 100 100 100 78 7 84 100 39 68 76 95 100 100 100 100 99 94 100 100 100 100 100 100 100 98 99
100 100 100 100 100 100 100 100 100 100 100 92 90 71 100 63 46 18 5 41 100 100 94 28 45 100 96 96 38 99 100 100 100 100 100 100 98 93 100 100 100 100 100 100 100
100 100 100 100 100 100 100 100 100 100 100 81 98 100 100 99 5 23 5 23 95 100 100 5 43 96 68 66 88 71 95 96 100 100 100 45 100 100 100 100 100 100 100 100 100
100 100 100 100 100 100 100 100 100 100 100 100 100 100 100 100 100 22 22 6 11 88 100 100 100 100 11 90 99 33 74 30 5 93 97 100 86 100 100 100 100 100 100 100 100
100 100 100 100 100 100 100 100 100 100 100 73 87 91 99 99 100 99 9 36 31 25 86 100 100 100 100 99 100 97 100 76 11 48 30 99 100 100 100 100 100 100 100 100 100
100 100 100 100 100 100 100 100 100 100 100 100 100 100 92 100 100 100 72 53 33 43 82 100 100 100 100 100 100 100 97 89 52 80 96 82 100 100 100 100 100 100 100 100 100
100 100 100 100 100 100 100 100 100 100 100 100 71 100 100 100 73 97 100 37 8 5 27 60 99 100 100 100 100 100 100 85 8 96 58 100 100 100 100 100 100 100 100 100 100
100 100 100 100 100 100 100 100 99 7 27 78 99 100 100 100 97 99 99 100 62 84 59 46 66 100 100 100 100 100 100 100 67 5 92 100 97 100 100 100 100 100 100 100 100
100 100 100 100 100 100 100 100 97 5 5 5 70 100 100 100 100 100 100 100 100 48 79 99 77 92 100 100 100 100 100 100 100 39 47 98 100 100 100 100 100 100 100 100 100
48 100 100 100 100 100 100 100 90 20 5 5 6 94 99 100 96 100 100 99 99 99 63 62 93 77 79 100 100 100 100 100 100 100 100 100 97 100 100 100 97 82 95 98 100
100 100 100 100 100 100 100 100 100 96 7 5 5 5 100 100 100 100 92 100 100 100 87 56 86 100 99 90 100 100 100 100 100 100 100 100 100 100 100 100 100 100 98 100 100
100 100 100 100 100 100 100 100 100 97 7 5 5 5 98 100 96 56 23 56 100 100 100 96 97 100 100 98 83 100 100 100 100 100 100 100 100 100 100 100 100 100 100 100 100
100 100 100 100 100 100 100 100 100 100 100 28 84 91 99 100 20 18 8 50 90 100 100 100 100 100 56 100 100 100 100 100 100 100 100 100 100 100 100 100 100 97 53 45 50
100 100 100 100 100 100 100 100 100 100 100 99 100 76 39 52 5 65 31 24 62 91 100 100 100 100 100 100 100 100 100 100 100 100 100 100 100 100 100 100 100 100 99 29 35
100 100 100 100 100 100 100 100 100 100 100 14 5 5 5 17 86 100 100 99 87 100 100 100 100 100 100 100 100 100 100 100 100 100 100 100 100 100 100 100 100 74 5 5 48
100 100 100 100 100 100 100 100 100 100 100 100 100 100 98 100 100 100 100 100 95 100 100 100 100 100 100 100 100 100 100 100 100 100 100 100 100 100 100 100 100 100 98 20 24

GFSSW_prec_cloud_165.txt.gz
Cloud_Cover
100 100 100 100 95 100 100 100 100 97 100 100 100 100 100 100 100 100 100 100 100 100 100 100 100 78 52 96 69 100 100 100 100 100 15 68 96 9 8 38 8 38 6 10 61
100 100 100 100 100 94 100 100 100 100 100 100 100 100 100 100 93 100 100 100 100 100 100 100 100 88 61 92 92 100 100 100 100 100 48 41 94 47 19 5 5 69 6 8 48
100 100 100 100 100 100 100 100 100 100 100 100 100 100 100 100 99 94 100 100 100 100 100 100 100 100 100 97 47 69 97 100 100 100 100 23 78 38 5 93 7 65 86 32 99
100 100 100 100 100 100 100 100 100 100 100 100 100 100 100 100 95 100 100 100 100 100 100 86 100 100 93 99 100 100 100 100 100 100 100 100 100 56 5 28 96 6 80 100 100
100 100 100 100 100 100 100 100 100 100 100 100 100 100 100 88 57 98 100 100 100 100 100 100 100 100 89 92 98 87 100 95 100 100 100 100 100 100 64 6 48 96 49 92 100
100 100 100 100 100 100 100 100 100 100 100 100 98 96 78 100 92 81 100 100 100 100 100 100 99 100 78 98 97 99 100 34 97 100 100 100 100 100 100 58 5 57 100 98 100
100 100 100 100 100 100 100 100 100 100 100 100 100 100 82 100 100 100 100 100 100 100 100 100 100 100 63 49 82 100 94 93 40 99 100 100 100 100 100 100 50 56 100 46 89
100 100 100 100 100 100 100 100 100 100 100 100 100 100 100 96 100 100 100 100 100 100 100 100 100 100 100 76 94 88 93 99 100 100 92 99 100 100 100 100 100 100 100 92 99
100 100 100 100 100 100 100 100 100 100 100 100 100 100 100 100 100 100 100 100 100 100 100 100 100 100 100 97 100 83 87 100 100 100 61 74 100 100 100 100 100 100 100 100 82
100 100 100 100 100 100 100 100 100 100 100 100 100 100 100 100 100 100 100 100 100 100 100 100 99 99 100 100 100 100 93 76 80 100 75 69 90 100 98 23 63 100 100 100 100
100 100 100 100 100 100 100 100 100 100 100 100 76 99 100 100 100 100 100 100 100 100 100 100 100 100 100 85 48 82 35 93 100 68 94 36 100 100 100 100 100 98 100 100 100
100 100 100 100 100 100 100 100 100 100 100 100 100 100 100 100 100 100 100 68 100 100 100 100 100 100 89 61 42 98 100 96 91 85 14 78 82 100 100 100 100 98 10 8 91
100 100 100 100 100 100 100 100 100 100 100 100 100 100 100 100 100 100 100 84 10 63 100 100 100 84 10 25 92 86 98 93 100 86 37 96 28 100 100 100 100 100 100 56 100
100 100 100 100 100 100 100 100 100 100 100 100 100 100 66 63 77 46 74 14 9 5 18 100 100 100 98 33 85 99 96 79 93 94 28 60 64 100 100 100 100 100 100 100 79
100 100 100 100 100 100 100 100 100 100 100 100 100 100 100 100 84 64 100 96 79 62 5 60 100 100 100 100 65 66 100 99 98 81 46 85 22 100 100 100 90 100 100 100 100
100 100 100 100 100 100 100 100 100 100 100 100 100 100 100 100 100 84 29 26 23 9 29 72 77 98 100 100 100 100 100 100 90 22 56 100 99 100 100 100 100 100 100 100 100
100 100 100 100 100 100 100 100 100 100 100 100 100 100 100 100 100 100 90 82 53 60 32 57 66 100 100 100 100 100 100 100 100 90 69 100 84 98 100 100 100 100 100 100 100
47 100 100 100 100 100 100 100 100 100 98 97 100 100 100 100 100 100 100 100 20 5 7 70 82 91 97 64 100 100 100 100 69 44 91 97 100 100 97 100 100 100 100 100 97
7 100 100 100 100 100 100 100 100 100 100 97 100 100 100 100 100 100 90 89 93 53 21 63 7 14 73 64 6 49 99 100 100 100 76 29 100 100 100 74 100 100 100 100 99
55 100 100 100 100 100 100 100 100 100 100 100 100 100 100 100 100 100 100 100 100 100 87 35 39 5 12 37 13 5 65 94 100 100 100 100 69 100 100 100 100 87 61 98 100
55 100 100 100 100 100 100 100 100 100 74 100 100 100 100 100 100 100 100 100 100 100 28 5 5 90 30 58 51 87 79 21 45 18 100 100 100 100 100 100 100 100 100 100 100
90 100 100 100 100 100 100 100 100 100 99 28 100 100 100 100 100 100 100 100 100 100 80 20 5 83 95 6 46 51 9 30 32 60 88 50 100 100 100 100 100 100 100 100 100
100 100 100 100 100 100 100 100 100 100 100 62 59 100 100 100 100 100 100 100 100 100 100 100 38 87 100 70 77 100 100 94 69 82 98 100 100 100 100 100 100 100 100 100 100
100 100 100 100 100 100 100 100 100 100 100 51 58 83 100 100 100 100 100 100 100 100 100 94 67 45 27 11 26 96 96 100 100 87 68 60 100 100 100 100 81 100 100 100 100
100 100 100 100 100 100 100 100 100 100 100 74 97 27 49 100 99 90 100 100 100 100 100 99 96 40 52 83 79 90 46 69 63 85 47 95 77 100 100 100 100 100 99 71 70
91 79 100 100 100 100 100 100 100 100 100 5 2 5 5 3 16 96 98 100 94 94 100 100 100 72 6 43 95 92 54 7 5 90 100 100 100 100 100 100 100 100 91 98 100
92 74 100 100 100 100 100 100 100 100 100 100 100 74 75 85 98 100 99 84 6 5 49 99 82 83 96 100 62 20 5 46 45 29 100 63 100 100 100 100 100 71 100 100 100

GFSSW_prec_cloud_168.txt.gz
Cloud_Cover
100 100 100 100 100 100 100 100 100 100 100 100 99 94 100 100 100 100 100 99 100 100 100 100 100 100 100 100 25 3 6 20 75 95 46 6 59 93 13 5 9 10 5 5 5
100 100 100 100 100 100 100 100 100 100 100 100 100 100 100 100 98 100 100 100 100 100 100 100 100 100 100 100 81 96 6 63 100 100 100 37 7 88 71 15 31 45 40 68 36
100 100 100 100 100 100 100 100 100 100 100 100 100 100 100 100 90 100 100 100 100 100 100 100 100 100 100 100 100 98 43 12 100 100 100 100 46 5 17 42 18 99 48 39 74
100 100 100 100 100 100 100 100 100 100 100 100 100 100 100 100 100 100 100 100 100 100 100 100 100 100 100 100 100 100 98 95 100 100 100 100 100 96 5 5 16 77 94 75 61
100 100 100 100 100 100 100 100 100 100 100 100 100 100 100 82 81 100 100 100 100 100 100 99 100 100 100 100 100 100 100 67 86 100 100 100 100 100 99 29 34 20 28 75 100
100 100 100 100 100 100 100 100 100 100 100 100 100 100 99 56 100 100 100 100 100 100 100 100 100 80 87 100 100 100 100 100 95 98 100 100 100 100 100 100 92 80 9 16 92
100 100 100 100 100 100 100 100 100 100 100 100 100 100 100 100 90 99 100 100 100 100 100 100 100 78 90 76 96 100 94 19 80 100 100 100 100 100 100 100 100 100 94 15 93
100 100 100 100 100 100 100 100 100 100 100 100 100 100 100 100 100 100 100 100 100 100 100 100 100 100 100 100 100 100 99 98 100 94 100 97 100 100 100 100 100 100 100 84 6
100 100 100 100 100 100 100 100 100 100 100 100 100 100 100 100 100 100 100 100 100 100 100 100 100 100 100 100 94 95 100 56 61 9 6 11 100 100 98 97 100 100 100 100 100
100 100 100 100 100 100 100 100 100 100 100 100 93 100 100 100 100 100 100 100 100 100 100 100 95 100 100 100 100 100 100 100 99 100 39 26 95 100 40 74 62 85 100 100 100
100 100 100 100 100 100 100 100 100 100 100 97 100 100 100 100 100 100 100 100 100 100 100 100 100 91 100 100 94 100 100 100 100 100 99 6 18 100 100 99 18 35 6 14 100
100 100 100 100 100 100 100 100 100 100 100 100 100 100 100 100 100 100 100 100 100 100 100 66 81 100 100 80 56 100 78 100 63 8 6 30 62 19 99 100 100 70 36 74 94
44 100 100 100 100 100 100 100 100 100 100 100 100 100 100 100 100 100 100 100 100 100 100 100 100 65 54 68 82 86 100 100 6 5 6 96 100 100 100 100 100 100 100 53 96
1 100 100 100 100 100 100 100 100 100 100 100 100 100 100 100 100 100 100 100 100 100 100 100 100 96 21 22 98 83 100 16 94 5 84 94 100 100 100 100 100 100 100 69 37
3 100 100 100 100 100 100 100 100 100 100 100 100 100 100 100 95 90 67 93 100 100 98 80 8 92 100 100 17 18 5 5 5 5 21 46 27 100 100 100 97 94 92 99 60
0 58 100 100 100 100 100 100 100 100 100 100 100 100 100 100 100 80 98 100 93 34 100 91 100 82 99 97 100 100 100 96 74 14 22 88 36 99 100 100 100 51 31 41 52
0 0 100 100 100 100 100 100 100 100 100 100 100 100 100 100 100 100 100 100 100 100 100 100 100 100 100 100 96 100 100 100 100 93 5 45 34 99 97 100 100 5 49 90 90
0 5 100 100 100 100 100 100 100 100 100 47 100 100 100 100 100 100 100 100 100 100 100 96 100 100 100 100 100 100 100 100 100 100 100 93 100 76 22 88 100 99 82 100 100
5 38 100 100 100 100 100 100 100 100 100 89 100 100 100 100 100 100 100 100 100 100 100 81 71 100 96 100 92 94 95 100 100 100 100 100 100 100 100 100 100 100 100 100 100
15 100 76 100 100 100 100 100 100 100 74 100 100 95 100 100 100 100 100 100 100 100 100 100 100 97 100 100 34 67 68 70 47 40 64 61 100 100 100 100 100 100 100 100 100
19 84 6 100 100 100 100 100 100 100 100 42 100 92 100 100 100 100 100 100 100 100 100 100 100 100 100 90 100 78 20 5 5 5 5 5 15 83 42 68 96 100 100 100 100
100 92 100 100 100 100 100 100 100 100 100 6 13 100 100 100 100 100 100 100 100 100 100 100 100 100 100 84 29 57 35 80 74 66 23 5 47 100 98 95 15 26 17 72 100
100 92 100 96 100 100 100 100 100 100 100 100 10 65 100 100 100 100 100 100 100 100 100 100 100 100 100 100 96 100 100 40 5 11 16 5 54 92 85 98 68 12 5 5 24
100 100 100 100 100 100 100 100 100 100 100 100 100 90 100 100 100 100 100 100 100 100 100 100 100 97 99 63 33 66 92 96 98 94 82 74 87 80 52 72 96 81 8 95 100
100 66 7 100 100 100 100 100 100 100 100 100 71 73 98 100 100 100 100 100 100 100 100 100 100 100 100 74 5 5 5 5 41 99 96 88 70 100 100 100 84 24 96 98 96
100 93 100 84 100 100 100 100 100 100 100 100 86 8 100 81 12 100 100 100 100 100 100 100 100 100 100 84 72 72 5 6 38 100 100 93 100 100 100 100 85 100 100 64 100
92 34 7 100 100 100 100 100 100 100 100 100 100 100 74 60 100 100 100 100 100 100 100 100 100 100 100 100 100 50 99 83 18 35 66 82 99 98 97 83 54 38 12 97 100

GFSSW_prec_cloud_171.txt.gz
Cloud_Cover
100 100 100 100 100 100 100 100 100 100 92 100 100 100 100 100 100 100 100 100 100 96 94 100 100 100 100 100 100 100 100 100 98 5 1 5 12 87 10 5 5 10 7 5 8
100 100 100 100 100 100 100 100 100 100 100 100 100 100 96 100 77 100 100 100 100 100 100 100 100 100 100 100 100 100 100 100 42 5 5 5 28 74 42 5 5 6 16 5 34
100 100 100 100 100 100 100 100 100 100 100 100 59 100 100 100 99 100 100 100 100 100 100 100 100 100 100 100 100 100 100 100 44 15 33 8 98 100 98 21 5 35 60 49 24
100 100 100 100 100 100 100 100 100 100 100 100 98 68 100 100 100 100 100 100 100 100 100 100 99 100 100 100 100 100 100 100 99 78 5 44 98 100 100 100 20 9 19 90 84
100 100 100 100 100 100 100 100 100 100 100 100 95 98 100 100 100 100 100 100 100 100 100 100 100 81 59 99 90 100 100 100 100 100 56 50 96 100 100 100 100 61 14 8 47
100 100 100 100 100 100 100 100 100 100 100 100 99 75 8 100 100 100 100 100 100 100 100 100 100 97 86 77 85 100 100 100 100 100 100 100 100 100 100 75 53 100 100 75 6
100 100 100 100 100 100 100 100 100 100 98 100 100 80 11 100 100 100 100 100 100 100 100 100 100 99 100 94 100 99 100 100 100 100 100 100 98 100 100 84 5 82 100 100 100
100 100 100 100 100 100 100 100 100 100 80 100 100 100 100 92 100 100 100 100 100 100 100 100 100 95 95 99 100 100 75 100 100 100 100 100 100 100 100 100 97 46 100 100 100
100 100 100 100 100 100 100 100 100 100 100 100 100 100 100 100 97 100 100 100 100 100 100 99 100 100 77 100 94 100 100 100 100 100 100 75 99 100 100 100 100 95 91 100 100
100 100 100 100 100 100 100 100 100 100 100 60 100 100 100 100 100 100 100 100 100 100 100 100 100 100 99 100 97 100 100 100 100 100 100 95 100 100 48 99 26 100 100 84 87
100 100 100 100 100 100 100 100 100 100 100 50 100 100 100 100 100 100 100 100 100 100 100 100 100 100 100 100 100 100 100 100 100 100 94 95 100 100 38 100 100 98 100 100 95
100 100 100 100 100 100 100 100 100 100 100 100 100 100 97 100 100 100 100 100 100 100 100 100 100 100 100 100 100 100 100 100 100 100 68 37 100 78 77 91 58 56 100 53 38
100 100 100 100 100 100 100 100 100 100 100 100 100 100 100 100 100 100 100 100 100 100 100 100 100 100 91 86 85 71 100 100 100 100 100 51 100 41 5 22 92 78 21 76 86
100 100 100 100 100 100 100 100 100 100 100 100 100 100 100 99 100 100 100 100 100 100 100 100 100 100 100 83 88 56 44 100 72 70 72 97 100 100 100 98 66 74 94 69 96
100 100 100 100 100 100 100 100 100 100 100 100 100 100 100 100 94 100 100 100 100 100 100 100 100 100 100 100 100 25 59 21 11 5 5 14 16 100 100 100 100 96 95 100 97
79 100 100 100 100 100 100 100 100 100 100 100 100 100 100 86 95 100 100 100 100 90 100 100 100 100 100 100 100 100 58 95 100 90 32 100 13 90 99 20 5 15 84 100 100
47 40 3 100 100 100 100 100 100 100 100 100 100 100 100 100 100 100 100 100 99 100 100 100 100 100 100 100 100 100 100 100 80 34 5 76 38 5 100 99 64 13 5 34 23
5 0 2 72 100 100 100 100 100 100 100 100 100 100 100 100 100 100 100 100 100 100 98 100 100 100 100 100 100 100 80 9 29 100 98 93 100 100 98 97 100 100 100 96 24
65 79 20 92 100 100 100 100 100 100 100 100 100 100 100 100 100 100 100 100 100 100 100 100 100 100 100 100 100 100 100 100 100 100 100 95 100 100 100 100 100 100 100 70 72
24 91 93 100 100 100 100 100 100 100 100 100 100 92 100 99 100 100 100 100 100 100 100 100 100 100 100 100 89 100 100 100 100 100 100 100 100 100 100 100 100 100 100 100 100
95 35 5 6 100 100 100 100 100 100 100 100 98 100 100 100 100 100 100 100 100 100 100 100 100 100 100 100 100 100 100 100 82 34 5 50 100 88 100 100 90 79 100 100 100
100 47 38 6 85 100 100 100 100 100 100 100 88 12 100 100 100 100 100 100 100 100 100 100 100 100 100 100 100 100 100 100 100 100 90 7 10 14 23 30 55 5 5 5 6
100 93 100 100 47 94 100 100 100 100 100 100 100 54 85 100 100 55 100 100 100 100 100 100 100 100 85 70 93 82 100 100 100 35 5 5 13 6 5 5 5 5 33 79 100
100 100 100 100 90 100 100 93 100 100 100 100 100 100 100 97 100 100 100 100 100 100 100 100 100 100 100 100 58 56 73 55 78 96 58 8 5 6 29 25 5 26 64 93 98
100 76 8 100 92 100 99 100 100 100 100 100 100 100 15 100 100 100 100 100 100 100 100 100 100 100 100 100 100 100 39 5 48 31 28 100 100 100 34 58 10 65 5 53 73
100 66 99 54 52 7 95 100 100 100 100 100 96 100 100 7 100 100 100 100 100 100 100 100 100 100 100 100 100 100 84 5 18 28 53 76 100 100 24 41 55 5 89 70 6
76 19 49 13 80 95 100 100 100 100 100 100 100 100 100 56 100 100 100 100 100 100 100 100 100 100 100 100 100 65 93 78 14 7 5 24 95 5 5 5 5 5 5 63 5

GFSSW_prec_cloud_174.txt.gz
Cloud_Cover
100 100 100 100 100 100 100 100 100 100 100 100 47 6 71 100 100 100 100 98 96 96 100 87 100 100 100 100 100 100 100 100 100 83 93 62 28 3 0 0 5 5 5 4 1
100 100 100 100 100 100 100 100 100 100 100 100 100 97 26 59 90 100 100 100 96 100 100 70 52 100 100 100 100 100 100 100 100 100 100 100 100 4 1 0 2 5 5 5 5
100 100 100 100 100 100 100 100 100 100 100 100 100 100 100 69 75 64 100 100 100 96 100 100 100 100 100 100 100 100 100 100 100 100 100 100 100 10 1 4 19 16 5 5 5
100 100 100 100 100 100 100 100 100 100 100 100 100 100 100 99 81 86 100 67 100 100 100 100 100 90 100 100 100 100 100 100 100 100 100 100 100 5 2 20 98 100 100 12 5
100 100 100 100 100 100 100 100 100 100 100 100 100 100 100 100 90 96 58 77 91 100 100 100 100 100 99 100 100 100 100 100 100 100 100 100 100 100 4 5 12 100 100 100 60
100 99 100 100 100 100 100 100 100 100 100 100 100 100 94 84 71 100 100 100 96 99 100 100 100 100 100 100 100 100 100 100 100 100 100 100 100 100 84 5 16 56 96 100 100
100 79 100 100 100 100 100 100 100 100 100 100 100 100 100 100 45 99 100 100 100 99 94 100 100 100 100 100 100 100 100 100 100 100 100 100 100 100 98 86 23 7 5 95 100
100 100 100 100 100 100 100 100 100 100 100 100 100 100 97 100 75 85 99 100 100 100 71 91 100 100 100 100 100 100 99 96 100 100 100 100 100 100 100 100 100 21 5 71 100
100 100 100 100 100 100 100 100 100 100 100 100 100 100 97 100 98 94 99 100 100 100 26 5 65 98 100 100 95 80 99 97 100 100 100 100 100 100 100 100 100 99 57 71 100
100 100 100 100 100 100 100 100 100 100 100 100 100 100 100 100 100 100 100 100 100 92 97 51 73 50 100 100 58 96 100 100 75 79 76 100 100 100 100 100 100 100 100 86 35
100 100 100 100 100 100 100 100 100 100 100 100 100 100 100 100 100 100 100 100 100 100 76 82 51 43 100 100 100 100 71 72 100 75 94 100 100 100 100 100 100 100 100 100 100
100 100 100 100 100 100 100 100 100 100 100 100 100 100 100 100 100 100 100 100 100 100 100 100 100 100 99 97 100 100 100 92 96 98 100 100 100 100 100 100 100 100 100 100 100
100 100 100 100 100 100 100 100 100 100 100 100 89 96 100 100 100 100 100 100 100 100 100 100 100 100 100 51 35 100 100 100 83 100 83 98 100 97 100 100 100 100 100 100 100
97 100 100 100 100 100 100 100 100 100 100 100 100 39 99 89 100 100 100 100 100 100 100 100 100 100 96 34 57 84 91 100 100 70 5 10 66 100 26 100 81 54 100 100 100
100 96 100 100 100 100 100 100 100 100 100 100 100 79 27 78 96 100 87 71 100 100 100 100 100 100 100 100 98 32 100 84 100 100 86 100 100 100 100 100 100 100 100 75 100
100 100 100 100 100 100 100 100 100 100 100 100 100 99 99 71 100 100 100 63 99 100 100 100 100 100 100 100 100 100 100 71 95 88 39 100 93 100 100 100 100 99 100 65 93
100 90 100 100 100 100 100 100 100 100 100 100 100 100 100 100 100 100 100 100 100 100 90 36 100 100 100 100 100 100 100 100 69 74 42 100 71 42 100 100 100 30 52 76 68
100 100 100 100 100 100 100 100 100 100 100 100 100 100 100 100 100 100 100 100 100 99 100 100 100 100 100 100 100 100 100 100 87 5 6 83 100 80 100 100 100 93 17 5 5
82 65 100 100 93 100 100 100 100 100 100 100 100 100 100 99 100 100 100 100 100 100 100 100 100 100 100 100 100 94 32 89 34 6 22 91 100 100 100 100 100 100 100 100 100
58 46 9 52 100 100 100 100 100 100 100 100 100 100 100 100 97 100 100 100 100 100 100 100 100 100 100 100 94 85 100 66 5 21 85 100 100 100 100 100 100 100 100 100 100
94 87 5 87 100 100 100 100 100 100 100 100 100 99 82 100 96 100 100 100 100 100 100 100 100 100 100 100 100 100 96 100 89 26 88 58 98 100 100 100 100 100 100 38 40
97 98 11 100 100 100 100 100 100 100 100 100 100 100 100 100 100 100 100 100 100 100 100 100 100 100 100 100 100 100 99 75 84 94 71 60 54 7 79 100 100 100 100 100 100
100 100 100 100 80 100 100 100 100 100 100 100 100 100 100 100 100 100 100 100 100 100 100 100 100 100 100 100 100 100 100 100 100 85 7 64 39 100 70 100 100 70 54 100 94
100 100 100 100 34 100 100 100 100 100 100 100 100 100 100 100 73 97 100 100 100 100 100 100 100 100 100 100 100 100 100 83 43 34 29 71 63 56 27 21 66 28 5 5 6
100 99 93 100 100 100 100 100 100 100 100 100 100 99 100 100 93 100 100 100 100 100 100 100 100 100 100 100 100 100 99 56 9 38 14 73 20 88 5 4 2 5 5 5 5
100 92 97 6 5 36 100 100 100 100 100 100 100 100 100 100 69 100 100 100 100 100 100 100 100 100 100 100 100 100 100 100 18 13 100 93 93 54 5 4 5 11 6 60 35
100 99 6 37 32 5 4 3 100 100 100 100 100 100 100 100 100 100 100 100 100 100 100 99 96 100 100 100 100 100 100 100 100 100 84 12 85 5 5 5 5 6 5 5 5